Location: Brabourne
(51.1333°N, 1.0000°E)
Time: 12:35:16
(UTC+00:00)

ADEOS Rocket - Pass Details

Date: 01 November 2021
Orbit: 858 x 1307 km, 98.8° (Epoch: 26 November)

Event Time Altitude Azimuth Distance (km) Brightness Sun altitude
Exits shadow 00:31:48 11° 352° (N) 2,912 5.8 -51.8°
Drops below altitude 10° 00:31:56 10° 351° (N) 2,961 5.9 -51.8°
Sets 00:34:28 0° 348° (NNW) 3,878 6.6 -51.7°
